TimeAEST,TemperatureF,Dew PointF,Humidity,Sea Level PressureIn,VisibilityMPH,Wind Direction,Wind SpeedMPH,Gust SpeedMPH,PrecipitationIn,Events,Conditions,WindDirDegrees,DateUTC
12:00 AM,64,60,84,30.21,,South,2.3,,,,Overcast,170,2013-05-12 14:00:00
12:00 AM,64.4,60.8,88,30.18,6.2,South,2.3,-,N/A,,Mostly Cloudy,170,2013-05-12 14:00:00
12:30 AM,62.6,60.8,94,30.18,6.2,South,5.8,-,N/A,,Mostly Cloudy,190,2013-05-12 14:30:00
12:56 AM,62.6,60.8,94,30.18,3.7,South,6.9,-,N/A,,Mostly Cloudy,170,2013-05-12 14:56:00
1:00 AM,62.6,60.8,94,30.15,5.0,South,6.9,-,N/A,,Mostly Cloudy,190,2013-05-12 15:00:00
1:07 AM,62.6,60.8,94,30.15,6.2,SSW,8.1,-,N/A,,Mostly Cloudy,210,2013-05-12 15:07:00
1:30 AM,62.6,60.8,94,30.18,6.2,SSW,5.8,-,N/A,,Mostly Cloudy,210,2013-05-12 15:30:00
1:54 AM,62.6,60.8,94,30.18,3.7,South,4.6,-,N/A,,Overcast,180,2013-05-12 15:54:00
2:00 AM,62.6,60.8,94,30.15,2.8,South,3.5,-,N/A,,Overcast,170,2013-05-12 16:00:00
2:14 AM,62.6,60.8,94,30.15,6.2,SSW,6.9,-,N/A,,Overcast,210,2013-05-12 16:14:00
2:30 AM,62.6,60.8,94,30.15,6.2,SW,8.1,-,N/A,,Overcast,220,2013-05-12 16:30:00
3:00 AM,63,61,91,30.16,,South,5.8,,,,Overcast,180,2013-05-12 17:00:00
3:00 AM,62.6,60.8,94,30.15,6.2,South,5.8,-,N/A,,Overcast,180,2013-05-12 17:00:00
3:30 AM,62.6,60.8,94,30.12,6.2,SSW,9.2,-,N/A,,Overcast,210,2013-05-12 17:30:00
4:00 AM,62.6,60.8,94,30.12,6.2,South,5.8,-,N/A,,Overcast,190,2013-05-12 18:00:00
4:30 AM,62.6,60.8,94,30.12,5.6,South,6.9,-,N/A,,Overcast,180,2013-05-12 18:30:00
5:00 AM,62.6,60.8,94,30.12,6.2,SSW,9.2,-,N/A,,Overcast,210,2013-05-12 19:00:00
5:30 AM,62.6,60.8,94,30.12,6.2,WSW,4.6,-,N/A,,Overcast,250,2013-05-12 19:30:00
6:00 AM,63,61,92,30.15,,SW,6.9,,,,Overcast,220,2013-05-12 20:00:00
6:00 AM,62.6,60.8,94,30.15,6.2,SW,6.9,-,N/A,,Overcast,220,2013-05-12 20:00:00
6:30 AM,62.6,60.8,94,30.12,6.2,South,8.1,-,N/A,,Overcast,170,2013-05-12 20:30:00
7:00 AM,62.6,60.8,94,30.12,6.2,SSW,5.8,-,N/A,,Mostly Cloudy,210,2013-05-12 21:00:00
7:30 AM,64.4,60.8,88,30.15,6.2,SW,6.9,-,N/A,,Mostly Cloudy,220,2013-05-12 21:30:00
8:00 AM,66.2,62.6,88,30.15,6.2,South,6.9,-,N/A,,Mostly Cloudy,180,2013-05-12 22:00:00
8:29 AM,66.2,62.6,88,30.15,3.7,ESE,5.8,-,N/A,,Overcast,120,2013-05-12 22:29:00
8:30 AM,64.4,62.6,94,30.15,3.7,ESE,5.8,-,N/A,,Overcast,120,2013-05-12 22:30:00
9:00 AM,66,63,87,30.16,,SSW,6.9,,,,Overcast,210,2013-05-12 23:00:00
9:00 AM,66.2,62.6,88,30.15,6.2,SSW,6.9,-,N/A,,Mostly Cloudy,210,2013-05-12 23:00:00
9:03 AM,66.2,64.4,94,30.15,6.2,SSW,6.9,-,N/A,,Mostly Cloudy,200,2013-05-12 23:03:00
9:30 AM,66.2,64.4,94,30.12,6.2,South,6.9,-,N/A,,Scattered Clouds,170,2013-05-12 23:30:00
9:54 AM,66.2,62.6,88,30.15,-9999.0,SW,4.6,-,N/A,,Overcast,230,2013-05-12 23:54:00
10:00 AM,66.2,62.6,88,30.15,1.0,WSW,3.5,-,N/A,,Overcast,250,2013-05-13 00:00:00
10:30 AM,68.0,64.4,88,30.12,3.7,South,9.2,-,N/A,,Overcast,170,2013-05-13 00:30:00
10:40 AM,66.2,62.6,88,30.12,6.2,South,9.2,-,N/A,,Overcast,190,2013-05-13 00:40:00
11:00 AM,68.0,62.6,83,30.12,6.2,South,9.2,-,N/A,,Overcast,190,2013-05-13 01:00:00
11:30 AM,68.0,64.4,88,30.12,6.2,SSW,6.9,-,N/A,,Overcast,210,2013-05-13 01:30:00
12:00 PM,69,64,79,30.10,,South,6.9,,,,Overcast,180,2013-05-13 02:00:00
12:00 PM,69.8,64.4,83,30.09,6.2,South,6.9,-,N/A,,Mostly Cloudy,180,2013-05-13 02:00:00
12:30 PM,68.0,62.6,83,30.06,6.2,South,5.8,-,N/A,,Overcast,180,2013-05-13 02:30:00
1:00 PM,69.8,62.6,78,30.06,6.2,SSW,5.8,-,N/A,,Overcast,200,2013-05-13 03:00:00
1:30 PM,69.8,62.6,78,30.06,6.2,West,4.6,-,N/A,,Overcast,260,2013-05-13 03:30:00
1:40 PM,68.0,64.4,88,30.06,3.7,West,6.9,-,N/A,,Overcast,280,2013-05-13 03:40:00
1:56 PM,68.0,64.4,88,30.06,5.0,West,6.9,-,N/A,,Overcast,280,2013-05-13 03:56:00
1:58 PM,68.0,64.4,88,30.06,3.1,West,6.9,-,N/A,,Overcast,280,2013-05-13 03:58:00
2:00 PM,68.0,64.4,88,30.06,-9999.0,WNW,6.9,-,N/A,,Overcast,290,2013-05-13 04:00:00
2:30 PM,66.2,64.4,94,30.04,6.2,SE,5.8,-,N/A,,Overcast,130,2013-05-13 04:30:00
2:33 PM,66.2,64.4,94,30.04,6.2,SE,5.8,-,N/A,,Overcast,130,2013-05-13 04:33:00
3:00 PM,67,64,89,30.04,,SSW,4.6,,,,Overcast,200,2013-05-13 05:00:00
3:00 PM,68.0,64.4,88,30.04,6.2,SSW,4.6,-,N/A,,Overcast,200,2013-05-13 05:00:00
3:30 PM,68.0,64.4,88,30.04,6.2,SW,5.8,-,N/A,,Overcast,230,2013-05-13 05:30:00
4:00 PM,68.0,64.4,88,30.01,6.2,SW,3.5,-,N/A,,Mostly Cloudy,220,2013-05-13 06:00:00
4:30 PM,68.0,64.4,88,30.04,6.2,West,2.3,-,N/A,,Mostly Cloudy,270,2013-05-13 06:30:00
5:00 PM,66.2,62.6,88,30.04,6.2,WNW,1.2,-,N/A,,Overcast,290,2013-05-13 07:00:00
5:30 PM,66.2,62.6,88,30.04,6.2,SW,4.6,-,N/A,,Overcast,220,2013-05-13 07:30:00
6:00 PM,66,63,87,30.05,,WSW,3.5,,,,Overcast,240,2013-05-13 08:00:00
6:00 PM,66.2,62.6,88,30.04,6.2,WSW,3.5,-,N/A,,Overcast,240,2013-05-13 08:00:00
6:30 PM,66.2,64.4,94,30.04,6.2,SSE,1.2,-,N/A,,Overcast,160,2013-05-13 08:30:00
7:00 PM,64.4,62.6,94,30.04,6.2,South,3.5,-,N/A,,Mostly Cloudy,190,2013-05-13 09:00:00
7:30 PM,64.4,62.6,94,30.04,6.2,SSW,3.5,-,N/A,,Unknown,210,2013-05-13 09:30:00
8:00 PM,64.4,62.6,94,30.04,6.2,WSW,4.6,-,N/A,,Unknown,250,2013-05-13 10:00:00
8:30 PM,64.4,62.6,94,30.04,6.2,West,3.5,-,N/A,,Unknown,260,2013-05-13 10:30:00
9:00 PM,64,62,91,30.04,,West,4.6,,,,,260,2013-05-13 11:00:00
9:00 PM,64.4,62.6,94,30.04,6.2,West,4.6,-,N/A,,Mostly Cloudy,260,2013-05-13 11:00:00
9:30 PM,62.6,62.6,100,30.04,6.2,SW,1.2,-,N/A,,Overcast,230,2013-05-13 11:30:00
10:00 PM,62.6,62.6,100,30.04,6.2,SSW,4.6,-,N/A,,Overcast,210,2013-05-13 12:00:00
10:39 PM,62.6,60.8,94,30.01,3.7,SSW,3.5,-,N/A,,Scattered Clouds,210,2013-05-13 12:39:00
10:57 PM,62.6,60.8,94,30.01,6.2,SW,4.6,-,N/A,,Unknown,230,2013-05-13 12:57:00
11:00 PM,62.6,60.8,94,30.01,6.2,SW,4.6,-,N/A,,Unknown,230,2013-05-13 13:00:00
11:30 PM,62.6,60.8,94,30.01,6.2,SSW,4.6,-,N/A,,Scattered Clouds,210,2013-05-13 13:30:00